sat.trackr.live / text

‹ back to catalog

STARLINK-3735

NORAD 52116 · 2022-029AE

PAYLOAD ACTIVE UNKNOWN

§ Identity

Operator
Country
US
Launch date
2022-03-19
Launch site
AFETR
Launch vehicle
Mass (kg)
RCS (m²)

Purposes: comms

External: N2YO · Heavens-Above · Gunter

§ Orbital elements

Epoch: 2026-09-20T01:12:48.097152Z

Period
93.85 min
Inclination
53.1588°
Eccentricity
0.0001155
Mean motion
15.34384164 rev/d
Perigee alt
462.0 km
Apogee alt
463.5 km
Semi-major
6,840.9 km
B*
5.3852e-5
RAAN
271.4749°
Arg perigee
112.6323°
Mean anomaly
247.4802°
Rev number
25,033

§ Raw data

STARLINK-37351 52116U 22029AE  26263.05055668  .00001443  00000+0  53852-4 0  99922 52116  53.1588 271.4749 0001155 112.6323 247.4802 15.34384164250330

JSON: /api/v1/satellites/52116 · /tle

For live sub-satellite position, see the globe view (requires WebGL).

§ Visibility from observer

Set your observer location to see the next 7 days of passes ≥ 10°. The values pass through the URL so the page stays shareable.

No JS? Fill the form by hand. The geolocation button needs JavaScript.